Location: Ch?enovice
(49.7164°N, 15.2160°E)
Time: 17:19:09
(UTC+00:00)

Cosmos 1733 Rocket - Pass Details

Date: 23 May 2024
Orbit: 600 x 624 km, 82.5° (Epoch: 13 June)

Event Time Altitude Azimuth Distance (km) Brightness Sun altitude
Rises 00:24:35 0° 341° (NNW) 2,866 7.3 -16.9°
Reaches altitude 10° 00:27:01 10° 330° (NNW) 1,959 6.1 -16.8°
Maximum altitude 00:30:43 28° 271° (W) 1,138 4.2 -16.6°
Enters shadow 00:31:57 24° 242° (WSW) 1,257 4.2 -16.5°
